Погода в Оторме

Россия / Пензенская область     53°32′17″N   42°30′06″E
темп.,
°C
ветер,
м/с
пор.,
м/с
влажн.,
%
обл.,
%
осадки,
мм/ч
давл.,
гПа
погр.,
м
16 мая, пн
пн1600:00+7з369282 0.0 1004128
03:00+6з389517 0.0 1004152
06:00+7з379176 0.0 1003216
09:00+12з567772 0.0 1003754
12:00+13зсз7874100 1.3 10031175
15:00+10зсз897999 2.0 1005978
18:00+10зсз587762 0.3 10051021
21:00+6зюз38895 0.8 1006158
17 мая, вт
вт1700:00+5зюз410935 0.0 1005229
03:00+4зюз4109610 0.0 1005237
06:00+5зюз5109499 0.0 1004397
09:00+7з6883100 0.1 1004832
12:00+7зюз5984100 0.1 10031009
15:00+6зюз5894100 1.7 1002969
18:00+7зюз5996100 0.3 1001553
21:00+8зсз51096100 0.9 1002568
18 мая, ср
ср1800:00+7з4998100 0.8 1002423
03:00+6з4798100 2.8 1002506
06:00+6с3591100 0.4 1003272
09:00+7ссз3487100 0.4 1005336
12:00+10ссз358187 0.1 1006750
15:00+10с3682100 0.7 1007660
18:00+9ссв478690 0.8 1009634
21:00+8сз259267 1.1 1011167
19 мая, чт
чт1900:00+4сз34936 0.0 101270
03:00+6зсз3794100 0.0 1012228
06:00+6сз3695100 0.3 1012862
09:00+6зсз4685100 0.6 1012654
12:00+9з6768100 0.2 10111323
15:00+6зсз61195100 4.8 1010886
18:00+4сз71197100 0.2 1012722
21:00+5сз61193100 0.3 1014820
20 мая, пт
пт2000:00+3сз410968 0.0 1015300
03:00+2сз410960 0.0 1016226
06:00+3сз49895 0.0 1017258
09:00+8сз58665 0.0 10171039
12:00+9сз5763100 0.1 10161485
15:00+11сз475598 0.3 10151906
18:00+9сз357465 0.3 1014593
21:00+6сз228399 0.5 101335